, MS

(GMT )
Nakika

Weather History for KIKT - February, 2014

Change the Weather History Date:

Saturday, February 22, 2014

  Actual Average Record
Temperature  
Mean Temperature 66 °F -  
Max Temperature 68 °F - - ()
Min Temperature 64 °F - - ()
Cooling Degree Days 1    
Growing Degree Days 16 (Base 50)    
Moisture  
Dew Point 57 °F    
Average Humidity 72    
Maximum Humidity 100    
Minimum Humidity 56    
Precipitation  
Precipitation 0.00 in - - ()
Sea Level Pressure  
Sea Level Pressure 30.06 in    
Wind  
Wind Speed 13 mph (East)    
Max Wind Speed 21 mph    
Max Gust Speed 20 mph    
Visibility 10 miles    
Events      
Averages and records for this station are not official NWS values.
T = Trace of Precipitation, MM = Missing Value Source: NWS Daily Summary

Daily Weather History Graph

Daily Weather History Graph

Search for Another Location

Airport or City:

Trip Planner

Search our weather history database for the weather conditions in past years. The results will help you decide how hot, cold, wet, or windy it might be!

Date:

Astronomy

Feb. 22, 2014 Rise Set
Actual Time 6:25 AM CST 5:48 PM CST
Civil Twilight 6:01 AM CST 6:12 PM CST
Nautical Twilight 5:33 AM CST 6:39 PM CST
Astronomical Twilight 5:06 AM CST 7:07 PM CST
Moon 12:08 AM CST (2/22) 11:11 AM CST (2/22)
Length of Visible Light 12h 11m
Length of Day
11h 23m
Waning Gibbous, 50% of the Moon is Illuminated
Feb 22
Waning Gibbous
Mar 1
New
Mar 8
First Quarter
Mar 16
Full
Mar 23
Last Quarter

Hourly Weather History & Observations

Time (CST) Temp. Dew Point Humidity Pressure Visibility Wind Dir Wind Speed Gust Speed Precip Events Conditions
12:15 AM 64.4 °F 48.2 °F 56% 30.07 in 10.0 mi NE 8.1 mph 13.8 mph N/A   Clear
12:35 AM 64.4 °F 48.2 °F 56% 30.08 in 10.0 mi NE 6.9 mph - N/A   Clear
12:55 AM 64.4 °F 48.2 °F 56% 30.07 in 10.0 mi NE 6.9 mph - N/A   Clear
1:15 AM 64.4 °F 48.2 °F 56% 30.07 in 10.0 mi NE 6.9 mph - N/A   Clear
1:35 AM 64.4 °F 48.2 °F 56% 30.06 in 10.0 mi NE 6.9 mph - N/A   Clear
1:55 AM 64.4 °F 48.2 °F 56% 30.05 in 10.0 mi NNE 11.5 mph - N/A   Clear
2:15 AM 64.4 °F 50.0 °F 59% 30.04 in 10.0 mi NNE 11.5 mph - N/A   Clear
2:35 AM 64.4 °F 50.0 °F 59% 30.04 in 10.0 mi NNE 9.2 mph 15.0 mph N/A   Clear
2:55 AM 64.4 °F 50.0 °F 59% 30.05 in 10.0 mi NNE 12.7 mph - N/A   Clear
3:15 AM 64.4 °F 50.0 °F 59% 30.05 in 10.0 mi NNE 13.8 mph - N/A   Clear
3:35 AM 64.4 °F 50.0 °F 59% 30.06 in 10.0 mi NNE 15.0 mph - N/A   Clear
3:55 AM 64.4 °F 50.0 °F 59% 30.05 in 10.0 mi NNE 15.0 mph - N/A   Clear
4:15 AM 64.4 °F 50.0 °F 59% 30.05 in 10.0 mi NNE 17.3 mph - N/A   Clear
4:35 AM 64.4 °F 51.8 °F 64% 30.05 in 10.0 mi NNE 16.1 mph - N/A   Clear
4:55 AM 64.4 °F 51.8 °F 64% 30.06 in 10.0 mi NNE 13.8 mph 19.6 mph N/A   Clear
5:15 AM 64.4 °F 51.8 °F 64% 30.07 in 10.0 mi NE 11.5 mph 18.4 mph N/A   Clear
5:35 AM 64.4 °F 51.8 °F 64% 30.07 in 10.0 mi ENE 19.6 mph - N/A   Clear
5:55 AM 64.4 °F 53.6 °F 68% 30.08 in 10.0 mi ENE 19.6 mph - N/A   Clear
6:15 AM 64.4 °F 51.8 °F 64% 30.08 in 10.0 mi ENE 19.6 mph - N/A   Clear
6:35 AM 64.4 °F 51.8 °F 64% 30.08 in 10.0 mi East 20.7 mph - N/A   Clear
6:55 AM 64.4 °F 51.8 °F 64% 30.09 in 10.0 mi East 19.6 mph - N/A   Clear
7:15 AM 64.4 °F 51.8 °F 64% 30.09 in 10.0 mi East 19.6 mph - N/A   Clear
7:35 AM 64.4 °F 51.8 °F 64% 30.10 in 10.0 mi ENE 19.6 mph - N/A   Clear
7:55 AM 66.2 °F 53.6 °F 64% 30.11 in 10.0 mi East 19.6 mph - N/A   Clear
8:15 AM 66.2 °F 53.6 °F 64% 30.11 in 10.0 mi East 18.4 mph - N/A   Clear
8:35 AM 66.2 °F 53.6 °F 64% 30.12 in 10.0 mi East 18.4 mph - N/A   Clear
8:55 AM 66.2 °F 53.6 °F 64% 30.12 in 10.0 mi ENE 16.1 mph - N/A   Clear
9:15 AM 66.2 °F 53.6 °F 64% 30.12 in 10.0 mi ENE 16.1 mph - N/A   Clear
9:35 AM 66.2 °F 53.6 °F 64% 30.13 in 10.0 mi East 17.3 mph - N/A   Clear
9:55 AM 68.0 °F 53.6 °F 60% 30.12 in 10.0 mi East 17.3 mph - N/A   Clear
10:15 AM 68.0 °F 53.6 °F 60% 30.12 in 10.0 mi East 17.3 mph - N/A   Clear
10:35 AM 68.0 °F 55.4 °F 64% 30.12 in 10.0 mi East 16.1 mph - N/A   Clear
10:55 AM 68.0 °F 55.4 °F 64% 30.11 in 10.0 mi East 13.8 mph - N/A   Clear
11:15 AM 68.0 °F 55.4 °F 64% 30.10 in 10.0 mi East 16.1 mph - N/A   Clear
11:35 AM 68.0 °F 57.2 °F 68% 30.09 in 10.0 mi ENE 15.0 mph - N/A   Clear
11:55 AM 68.0 °F 57.2 °F 68% 30.08 in 10.0 mi ENE 15.0 mph - N/A   Clear
12:15 PM 68.0 °F 57.2 °F 68% 30.08 in 10.0 mi ENE 13.8 mph - N/A   Clear
12:35 PM 68.0 °F 57.2 °F 68% 30.08 in 10.0 mi ENE 15.0 mph - N/A   Partly Cloudy
12:55 PM 68.0 °F 57.2 °F 68% 30.07 in 10.0 mi ENE 13.8 mph - N/A   Partly Cloudy
1:15 PM 68.0 °F 57.2 °F 68% 30.06 in 10.0 mi East 15.0 mph - N/A   Clear
1:35 PM 66.2 °F 57.2 °F 73% 30.05 in 10.0 mi East 15.0 mph - N/A   Clear
1:55 PM 66.2 °F 57.2 °F 73% 30.05 in 10.0 mi East 15.0 mph - N/A   Clear
2:15 PM 66.2 °F 57.2 °F 73% 30.05 in 10.0 mi East 16.1 mph - N/A   Scattered Clouds
2:35 PM 66.2 °F 57.2 °F 73% 30.05 in 10.0 mi East 16.1 mph - N/A   Scattered Clouds
2:55 PM 66.2 °F 57.2 °F 73% 30.04 in 10.0 mi East 15.0 mph - N/A   Mostly Cloudy
3:15 PM 68.0 °F 59.0 °F 73% 30.04 in 10.0 mi East 16.1 mph - N/A   Mostly Cloudy
3:35 PM 66.2 °F 57.2 °F 73% 30.04 in 10.0 mi East 16.1 mph - N/A   Partly Cloudy
3:55 PM 66.2 °F 57.2 °F 73% 30.04 in 10.0 mi East 16.1 mph - N/A   Clear
4:15 PM 66.2 °F 59.0 °F 78% 30.03 in 10.0 mi East 15.0 mph - N/A   Partly Cloudy
4:35 PM 68.0 °F 59.0 °F 73% 30.03 in 10.0 mi ESE 17.3 mph - N/A   Scattered Clouds
4:55 PM 68.0 °F 60.8 °F 78% 30.03 in 10.0 mi ESE 15.0 mph - N/A   Scattered Clouds
5:15 PM 68.0 °F 60.8 °F 78% 30.03 in 10.0 mi ESE 15.0 mph - N/A   Partly Cloudy
5:35 PM 68.0 °F 60.8 °F 78% 30.03 in 10.0 mi ESE 16.1 mph - N/A   Clear
5:55 PM 68.0 °F 60.8 °F 78% 30.03 in 10.0 mi ESE 16.1 mph - N/A   Partly Cloudy
6:15 PM 68.0 °F 62.6 °F 83% 30.02 in 10.0 mi ESE 16.1 mph - N/A   Scattered Clouds
6:35 PM 68.0 °F 62.6 °F 83% 30.02 in 10.0 mi SE 15.0 mph - N/A   Overcast
6:55 PM 68.0 °F 62.6 °F 83% 30.02 in 10.0 mi SE 15.0 mph - N/A   Overcast
7:15 PM 68.0 °F 62.6 °F 83% 30.03 in 10.0 mi SE 16.1 mph - N/A   Overcast
7:35 PM 68.0 °F 64.4 °F 88% 30.03 in 10.0 mi SE 15.0 mph - N/A   Mostly Cloudy
7:55 PM 68.0 °F 64.4 °F 88% 30.03 in 10.0 mi SE 13.8 mph - N/A   Mostly Cloudy
8:15 PM 68.0 °F 64.4 °F 88% 30.04 in 10.0 mi SE 13.8 mph - N/A   Mostly Cloudy
8:35 PM 68.0 °F 64.4 °F 88% 30.03 in 10.0 mi SE 15.0 mph - N/A   Mostly Cloudy
8:55 PM 68.0 °F 64.4 °F 88% 30.03 in 10.0 mi SE 13.8 mph - N/A   Overcast
9:15 PM 68.0 °F 64.4 °F 88% 30.03 in 10.0 mi SE 15.0 mph - N/A   Overcast
9:35 PM 68.0 °F 66.2 °F 94% 30.03 in - SSE 15.0 mph - N/A   Unknown
9:55 PM 68.0 °F 66.2 °F 94% 30.03 in 10.0 mi SE 16.1 mph - N/A   Overcast
10:15 PM 68.0 °F 66.2 °F 94% 30.03 in 10.0 mi SE 15.0 mph - N/A   Overcast
10:35 PM 68.0 °F 66.2 °F 94% 30.02 in 10.0 mi SSE 13.8 mph - N/A   Overcast
10:55 PM 68.0 °F 66.2 °F 94% 30.02 in 10.0 mi SSE 12.7 mph - N/A   Overcast
11:15 PM 68.0 °F 66.2 °F 94% 30.02 in 10.0 mi SSE 13.8 mph - N/A   Mostly Cloudy
11:35 PM 68.0 °F 66.2 °F 94% 30.02 in 9.0 mi SSE 12.7 mph - N/A   Partly Cloudy
11:55 PM 68.0 °F 68.0 °F 100% 30.01 in 9.0 mi SSE 9.2 mph - N/A   Clear